Voltar ao catálogo

STARLINK-3043

AtivoComunicaçõesVLEO
NORAD 49179·PAYLOAD·🇺🇸 United States

Lançado Sep 14, 2021 de Vandenberg Space Force Base

Loading…

Próximas Passagens (próximas 24 horas)

TLE

AtualizadoSource: CelesTrak SupGP

Época: Sep 15, 2026, 02:28 UTC

1 49179C 21082BB  26258.10326389  .00026679  00000+0  22359-2 0  2588
2 49179  70.0007 136.8679 0002324 263.2507  52.2635 14.98317232    16

Acompanhe STARLINK-3043 em tempo real com AllMySat

Download on the App Store